Dewpoint
39 40 38 39 42 47 45 47 44 46 48 47 47 44 44 44 45 46 47 49 50 52 53 54 57 62 63 63 64 64 66 68 67 69 68 68 67 68 70 69 70 70 70 69
31 35 35 44 44 44 43 43 37 37 46 45 47 45 45 45 45 47 47 48 51 52 53 54 55 62 63 63 64 65 68 68 67 70 70 69 68 70 70 70 70 70 69 70
31 33 35 36 40 41 40 35 36 40 44 40 45 44 45 46 47 47 48 49 50 51 52 54 54 57 62 64 65 66 68 68 69 71 70 68 69 70 69 69 69 70 70 72
30 34 35 36 35 35 35 39 39 43 46 42 46 42 45 45 46 47 47 48 49 51 53 54 54 56 60 64 66 68 69 69 68 70 69 69 67 66 68 69 71 70 71 71
28 29 32 30 31 34 35 42 43 46 48 47 40 39 43 45 44 46 47 48 49 51 53 54 54 56 58 62 65 67 71 70 69 69 72 67 68 68 68 69 69 72 72 72
26 28 32 29 29 35 39 38 43 45 46 43 39 38 40 43 43 44 44 45 47 50 51 53 54 55 58 61 65 68 70 71 70 69 70 70 68 67 69 70 69 70 72 72
25 25 28 27 29 35 37 38 37 35 36 34 37 35 38 41 43 44 43 42 43 48 51 51 53 54 57 61 65 68 68 69 69 72 70 70 70 71 69 69 70 69 69 69
23 23 26 27 27 35 40 37 33 36 38 35 38 29 34 38 40 41 41 42 41 41 48 51 53 54 57 60 64 68 69 70 70 69 72 72 71 73 71 70 69 69 71 70
22 24 26 26 29 33 36 35 41 43 43 40 33 29 32 35 36 38 37 38 41 42 45 48 53 56 57 60 65 69 69 70 72 70 71 73 71 72 71 70 71 69 70 71
21 24 25 24 24 35 30 40 39 43 33 31 27 28 29 31 34 34 35 34 35 39 42 47 54 57 59 59 64 69 70 70 71 71 70 72 73 73 72 72 73 71 69 70
19 18 23 23 23 29 31 36 38 41 36 35 29 30 34 34 34 33 34 33 34 38 44 47 52 57 59 61 63 69 70 70 70 71 70 70 71 72 73 72 72 73 72 72
15 14 17 21 24 24 28 29 34 33 29 31 31 28 35 34 34 38 36 38 40 42 46 50 52 56 58 61 62 67 68 69 70 70 70 70 70 71 71 72 72 72 72 72
14 14 13 20 22 24 26 33 35 36 33 31 25 25 30 34 40 42 42 46 47 49 48 52 58 61 61 64 63 64 66 66 68 69 69 69 69 70 70 70 72 72 72 73
17 13 17 22 21 25 29 32 32 31 30 31 29 28 27 30 38 42 45 51 60 63 64 66 68 68 69 69 69 69 70 71 68 67 70 68 69 69 70 70 72 72 72 73
17 10 20 30 29 27 28 31 29 28 30 29 28 27 28 36 41 47 59 62 63 64 64 65 67 69 70 72 74 74 74 74 72 71 72 71 70 70 70 70 69 70 70 69
14 15 31 29 28 30 28 30 29 26 26 31 29 32 41 46 49 58 61 60 61 62 64 66 68 69 70 71 72 73 72 71 70 69 69 69 68 68 68 68 68 68 69 69
12 13 31 24 29 31 24 19 29 30 31 30 35 39 43 51 57 59 59 60 62 63 65 67 67 68 69 69 69 70 70 69 68 68 68 68 67 67 67 67 67 66 67 68
12 14 27 26 31 27 19 19 18 28 38 39 39 44 54 56 57 58 60 61 62 64 65 67 67 68 68 68 68 67 67 68 67 67 66 66 66 66 65 65 65 65 65 65
12 17 17 25 29 28 19 17 18 21 37 43 49 53 55 57 58 59 61 62 61 63 66 66 67 67 67 66 66 66 65 66 65 65 66 66 66 65 63 62 63 64 66 65
9 17 21 26 26 25 27 21 23 27 41 48 53 55 56 57 56 58 60 60 61 63 64 65 65 66 65 66 66 64 63 63 63 65 66 67 65 62 61 61 62 62 63 62
11 15 17 20 26 23 28 26 26 22 29 49 53 54 54 54 58 59 61 62 63 64 64 65 65 64 66 66 65 63 63 62 64 66 66 65 65 62 62 62 62 61 60 60
27 26 21 24 25 20 28 27 26 32 40 49 53 54 57 58 60 61 61 62 63 63 64 65 65 65 66 65 64 64 63 65 66 65 63 63 62 62 64 63 62 60 59 58
18 25 26 22 30 34 36 36 37 39 52 58 58 58 59 59 60 60 61 63 63 63 64 64 63 63 65 65 64 64 64 65 66 64 61 60 61 58 58 56 56 56 59 58
27 27 23 25 31 34 31 35 37 51 58 59 59 58 59 59 59 60 60 61 63 63 62 63 64 65 64 64 64 65 66 65 65 62 60 58 57 55 55 55 56 54 55 56
25 30 26 30 29 35 38 36 43 50 57 57 57 58 59 58 58 58 59 60 60 61 63 63 64 63 63 63 62 63 64 61 60 62 62 60 60 56 54 52 53 55 53 55
38 37 28 26 43 41 37 42 43 43 54 56 57 58 59 59 57 58 59 60 63 62 62 62 63 63 62 62 62 62 63 60 58 58 59 59 62 60 56 55 54 51 49 48
Wind_Speed
9 5 8 14 18 28 11 24 22 23 16 19 16 22 22 22 20 19 19 18 20 22 18 16 21 24 23 20 15 20 20 19 15 13 12 7 7 7 9 11 11 9 11 7
14 15 16 17 20 28 25 22 6 15 24 14 20 19 19 20 23 23 22 21 24 23 23 22 21 26 25 25 22 17 21 20 19 16 10 5 5 8 10 11 10 10 12 12
14 12 19 12 22 18 23 12 9 5 16 13 26 15 18 15 17 22 21 23 19 26 25 24 22 26 27 27 26 25 25 21 17 12 16 13 5 8 12 12 14 16 10 7
13 27 17 24 24 18 22 21 24 22 23 9 17 9 14 18 15 22 21 26 24 22 25 26 25 24 26 27 25 24 25 24 18 12 19 17 14 14 11 12 9 13 12 10
23 17 15 11 5 12 9 40 40 25 17 2 6 11 14 21 16 18 20 27 24 25 26 26 27 24 27 26 26 25 23 23 20 16 9 14 11 7 4 12 11 16 15 14
22 17 16 9 3 22 13 21 28 25 23 4 17 6 17 21 22 20 17 14 23 26 26 23 25 22 24 26 23 24 24 23 21 19 15 11 11 9 4 7 10 10 11 13
19 18 11 8 12 13 22 15 6 11 2 7 8 5 9 22 20 21 18 14 11 27 27 22 19 26 21 28 23 23 23 22 22 18 17 16 13 11 9 9 8 8 9 9
16 14 13 10 2 8 10 10 9 6 6 12 8 6 13 20 22 24 20 16 15 7 24 23 25 25 24 27 25 23 23 20 20 19 17 16 15 11 11 10 11 11 6 6
16 13 11 12 11 11 3 14 23 14 15 10 7 14 16 20 23 18 19 15 22 16 24 21 24 24 24 24 26 26 24 20 20 21 16 14 16 14 12 13 13 14 11 8
17 11 14 16 15 13 20 26 12 4 4 5 18 17 17 18 18 22 21 25 24 22 19 20 23 22 21 23 22 22 22 22 19 17 17 15 15 16 16 14 13 14 15 13
21 12 14 19 12 18 6 17 7 12 7 8 10 13 18 18 18 19 25 24 24 22 21 18 20 22 21 20 20 21 20 19 17 17 17 18 18 18 18 18 18 16 17 17
22 6 12 26 16 17 12 7 14 12 8 4 9 11 17 20 13 25 21 19 22 22 20 20 21 22 20 20 21 21 22 22 21 22 22 23 23 21 20 21 22 19 21 18
22 10 13 12 17 13 5 9 15 18 10 22 17 12 22 25 26 25 23 19 17 17 23 20 17 14 13 12 13 19 20 22 23 22 22 20 23 22 23 21 24 20 20 20
18 17 8 11 23 18 11 11 15 13 8 3 11 22 21 20 26 21 22 25 27 27 28 23 22 21 20 19 17 15 12 11 3 16 16 17 15 17 14 9 6 11 18 6
15 19 7 9 5 5 17 24 20 13 6 10 26 26 24 23 26 25 27 29 27 25 25 22 22 21 21 21 21 21 21 22 20 22 20 18 18 18 19 19 17 20 17 7
16 8 2 4 7 6 13 29 23 22 15 17 18 19 23 25 27 28 25 27 26 23 21 21 21 21 21 20 19 20 20 20 19 22 19 17 18 18 18 19 19 18 16 8
11 10 2 9 9 18 18 19 29 19 19 15 29 25 27 24 27 25 23 23 24 22 21 20 20 19 19 19 17 19 18 18 19 18 16 18 16 17 16 17 19 19 14 7
14 12 7 11 10 11 5 8 19 23 30 29 29 24 30 29 24 24 22 23 21 21 20 19 18 17 17 17 18 17 16 16 17 17 18 16 17 19 19 19 19 19 19 17
22 14 10 7 12 9 4 4 7 26 24 31 33 34 33 32 31 22 20 20 21 21 20 19 17 17 16 15 14 14 14 15 15 15 15 17 17 17 17 18 17 16 17 20
21 18 12 17 13 18 13 10 9 25 20 35 40 37 36 31 26 18 21 20 20 21 20 19 17 16 15 14 15 16 15 14 13 13 14 14 16 18 21 19 20 18 16 18
20 16 21 19 6 5 2 20 17 13 17 34 39 37 33 19 22 25 25 22 21 21 21 19 15 14 12 17 15 13 12 11 9 12 13 14 12 15 12 14 15 17 17 17
6 11 12 15 10 10 2 12 14 10 18 31 31 26 26 34 31 28 26 24 22 22 19 17 14 12 15 14 13 9 9 8 11 13 13 14 14 12 9 9 11 13 16 17
15 7 2 16 6 9 10 15 18 24 32 31 37 38 40 36 32 28 26 25 23 22 19 17 16 15 15 12 9 8 6 8 13 13 13 13 12 14 15 18 15 13 9 13
12 10 8 4 4 20 16 16 17 34 38 35 38 36 35 34 30 28 24 23 22 21 20 17 17 16 14 10 8 7 10 11 13 13 11 11 12 12 14 14 13 15 14 13
9 12 13 6 9 2 15 20 27 31 36 38 36 38 37 35 29 28 25 23 21 19 20 19 17 15 12 9 8 8 9 12 11 12 10 9 10 12 14 14 10 8 6 6
14 9 12 7 2 6 14 21 28 31 36 39 37 33 33 37 32 28 24 21 22 22 21 19 16 15 13 9 8 9 6 8 7 5 7 4 7 11 10 13 13 9 5 4
Wind_Direction
181 151 233 206 172 162 230 190 222 193 177 156 159 153 159 162 158 157 156 156 158 158 168 163 146 147 149 151 146 166 171 166 160 173 176 190 214 227 236 227 226 210 208 212
265 213 246 171 198 196 225 248 1 131 181 176 170 156 163 168 164 167 165 173 171 172 172 178 168 156 159 163 166 168 162 167 173 188 154 128 248 235 225 232 239 230 236 225
222 238 257 224 200 204 229 207 182 127 4 133 138 149 157 185 163 171 174 180 184 175 180 180 184 170 165 170 173 172 167 171 186 177 148 164 253 258 243 226 232 223 203 212
240 228 239 250 174 191 75 104 91 27 32 333 321 155 170 175 193 180 183 183 187 178 182 182 192 178 172 176 175 171 170 172 189 199 167 177 191 200 198 191 201 193 202 217
244 239 233 263 105 89 88 92 90 104 149 349 306 128 182 175 204 193 203 186 186 190 178 186 192 182 179 172 174 175 169 174 178 195 191 188 191 216 159 174 203 190 199 211
246 268 209 230 115 120 130 105 106 97 112 264 247 145 182 182 194 191 205 210 195 190 182 182 189 183 172 175 167 172 172 176 176 189 202 205 211 209 165 169 176 190 207 213
256 255 205 187 106 67 85 70 37 56 24 251 211 147 203 193 187 176 192 209 183 181 177 184 172 173 161 170 166 170 175 182 188 184 198 205 220 206 192 187 199 218 220 220
239 243 236 131 156 120 65 85 77 28 336 307 9 106 138 151 160 165 178 183 124 122 163 175 165 170 161 165 165 167 175 181 191 195 200 202 214 221 207 211 219 233 233 229
223 234 174 164 136 142 161 83 126 145 228 275 215 119 108 138 146 159 145 118 133 120 135 148 158 156 154 156 164 167 175 181 187 195 200 212 219 226 226 230 230 233 233 194
250 189 239 186 183 141 166 143 104 21 205 317 143 145 160 167 157 158 147 129 134 134 137 135 150 152 156 159 156 164 170 180 186 192 205 216 221 226 233 241 249 228 229 233
244 264 261 179 194 174 177 146 167 138 141 235 153 150 176 177 164 155 140 139 145 143 137 143 142 152 152 155 152 157 167 176 189 196 205 216 225 227 226 236 243 242 229 221
232 255 245 181 187 213 214 186 146 178 157 105 155 140 158 160 136 102 131 138 136 137 136 131 133 146 153 157 163 162 173 181 191 201 210 208 215 218 224 227 234 238 234 220
217 236 257 240 175 205 224 90 96 111 81 151 151 137 107 92 102 105 103 96 124 120 124 126 109 104 100 76 169 172 178 188 198 203 211 214 214 217 222 225 226 232 231 213
192 234 211 233 190 188 154 165 140 125 131 174 168 132 123 118 111 108 102 85 82 73 80 75 74 77 73 68 67 74 59 32 214 218 211 219 224 224 241 277 323 272 242 3
197 226 270 316 279 322 180 134 106 117 133 130 152 142 147 135 116 108 96 87 83 77 75 74 71 66 56 54 52 55 50 44 48 54 53 41 38 35 37 30 31 26 25 153
191 204 90 288 250 296 284 152 139 134 192 168 150 136 130 119 106 100 101 98 95 90 81 74 66 65 61 56 51 52 51 51 54 57 52 49 49 46 36 26 22 40 43 56
181 168 131 234 270 308 233 178 171 177 186 181 130 137 125 111 107 108 103 100 101 97 90 80 74 68 68 62 57 58 58 54 55 58 53 53 46 43 35 25 16 11 20 13
187 191 160 227 269 268 125 117 151 120 113 118 122 120 110 109 104 100 100 106 105 104 99 91 86 79 80 76 67 66 64 64 61 54 48 40 40 43 33 25 15 4 355 349
189 200 188 163 254 268 189 182 127 139 146 131 118 111 110 107 99 98 106 108 112 113 108 106 100 93 91 94 94 89 77 65 65 59 50 50 54 47 33 26 15 9 13 22
187 196 189 169 218 224 202 174 135 118 124 132 126 127 126 120 117 132 124 117 107 103 108 110 107 104 102 102 97 89 83 80 70 64 55 57 64 58 47 35 30 29 39 36
192 199 203 218 221 262 210 145 119 137 161 145 141 142 140 139 143 134 115 106 103 105 107 106 109 113 114 100 99 92 100 93 81 75 70 57 82 70 64 58 53 53 44 36
157 179 200 209 200 230 322 171 170 155 141 145 136 142 130 124 125 127 129 126 119 118 118 128 130 114 109 106 106 104 100 110 94 89 78 66 61 49 43 58 67 70 72 60
225 186 159 194 181 149 116 116 133 120 122 128 128 129 130 130 131 134 138 140 140 135 134 126 120 111 107 111 109 101 108 110 111 99 87 78 72 62 59 53 51 48 71 76
214 188 222 9 153 139 128 128 121 121 131 131 131 133 133 134 137 137 134 133 133 137 139 132 119 111 113 113 111 105 108 122 126 122 109 102 91 83 74 66 59 58 50 53
193 173 208 242 258 198 159 139 131 125 134 134 138 138 137 135 137 133 133 134 138 132 125 126 123 125 114 99 90 121 113 112 110 143 151 146 134 102 86 72 68 74 64 59
37 351 188 226 156 148 165 143 139 134 145 144 140 140 142 139 138 134 134 133 124 122 125 127 133 138 136 132 108 105 115 132 149 142 98 115 152 152 131 103 82 62 70 63